{"data":{"norad_id":52676,"intl_designator":"2022-053W","name":"STARLINK-4006","alt_names":[],"object_type":"PAYLOAD","status":"ACTIVE","operator":null,"country":"US","launch_date":"2022-05-18","launch_site_code":"AFETR","launch_vehicle":null,"mission":null,"orbit_class":"UNKNOWN","rcs_meters":null,"size_class":null,"mass_kg":null,"dimensions":null,"purposes":["comms"],"wikipedia_slug":null,"has_3d_model":false,"image_url":null,"decayed_at":null,"tle_current":{"epoch":"2026-09-19T18:45:32.991840Z","epoch_age_seconds":128509,"freshness":"FRESH","line1":"1 52676U 22053W   26262.78163185  .00000375  00000+0  21653-4 0  9990","line2":"2 52676  53.1612 351.5529 0001074  84.7605 275.3521 15.35402062240490","mean_motion":15.35402062,"eccentricity":0.0001074,"inclination_deg":53.1612,"raan_deg":351.5529,"arg_perigee_deg":84.7605,"mean_anomaly_deg":275.3521,"bstar":2.1653e-5,"rev_number":24049,"period_min":93.78650945175,"perigee_km":458.99213415849,"apogee_km":460.46090724274,"semimajor_km":6837.8635207006,"source":"CELESTRAK","updated_at":"2026-09-20T09:00:40.104207Z"}}}